| time (UTC) | temp F | wind direction | speed MPH | gust MPH | rain 1hr in | rain 24hr in | rain mn in | humidity % | barometer mb |
| 20260903093502 | 69 | 243 | 3.0 | 0.0 | 0.00 | 0.00 | 0.00 | 58 | 1022.2 |
| 20260903093001 | 70 | 243 | 10.0 | 0.0 | 0.00 | 0.00 | 0.00 | 60 | 1022.1 |
| 20260903092502 | 70 | 238 | 2.0 | 0.0 | 0.00 | 0.00 | 0.00 | 59 | 1022.3 |
| 20260903092002 | 69 | 239 | 5.0 | 0.0 | 0.00 | 0.00 | 0.00 | 62 | 1022.4 |
| 20260903091502 | 69 | 251 | 5.0 | 0.0 | 0.00 | 0.00 | 0.00 | 62 | 1022.3 |
| 20260903091001 | 68 | 186 | 3.0 | 0.0 | 0.00 | 0.00 | 0.00 | 63 | 1022.4 |
| 20260903090502 | 68 | 214 | 4.0 | 0.0 | 0.00 | 0.00 | 0.00 | 63 | 1022.3 |
| 20260903090001 | 68 | 238 | 8.0 | 0.0 | 0.00 | 0.00 | 0.00 | 64 | 1022.3 |
| 20260903085502 | 68 | 247 | 7.0 | 0.0 | 0.00 | 0.00 | 0.00 | 63 | 1022.4 |
| 20260903085002 | 67 | 278 | 6.0 | 0.0 | 0.00 | 0.00 | 0.00 | 64 | 1022.5 |
| 20260903084501 | 67 | 248 | 6.0 | 0.0 | 0.00 | 0.00 | 0.00 | 63 | 1022.5 |
| 20260903084002 | 67 | 248 | 6.0 | 0.0 | 0.00 | 0.00 | 0.00 | 65 | 1022.6 |
| 20260903083501 | 67 | 241 | 4.0 | 0.0 | 0.00 | 0.00 | 0.00 | 64 | 1022.6 |
| 20260903083002 | 67 | 273 | 3.0 | 0.0 | 0.00 | 0.00 | 0.00 | 64 | 1022.5 |
| 20260903082501 | 67 | 259 | 4.0 | 0.0 | 0.00 | 0.00 | 0.00 | 64 | 1022.3 |
| 20260903082002 | 66 | 213 | 6.0 | 0.0 | 0.00 | 0.00 | 0.00 | 65 | 1022.2 |
| 20260903081501 | 65 | 206 | 7.0 | 0.0 | 0.00 | 0.00 | 0.00 | 65 | 1022.1 |
| 20260903081002 | 66 | 202 | 8.0 | 0.0 | 0.00 | 0.00 | 0.00 | 67 | 1022.0 |
| 20260903080501 | 65 | 207 | 6.0 | 0.0 | 0.00 | 0.00 | 0.00 | 66 | 1021.9 |
| 20260903080002 | 65 | 181 | 5.0 | 0.0 | 0.00 | 0.00 | 0.00 | 67 | 1022.0 |
| 20260903075502 | 65 | 232 | 3.0 | 0.0 | 0.00 | 0.00 | 0.00 | 69 | 1022.1 |
| 20260903075002 | 65 | 206 | 4.0 | 0.0 | 0.00 | 0.00 | 0.00 | 69 | 1022.1 |
| 20260903074502 | 64 | 202 | 6.0 | 0.0 | 0.00 | 0.00 | 0.00 | 69 | 1022.0 |
| 20260903074001 | 64 | 216 | 7.0 | 0.0 | 0.00 | 0.00 | 0.00 | 70 | 1022.0 |
| 20260903073502 | 63 | 186 | 3.0 | 0.0 | 0.00 | 0.00 | 0.00 | 71 | 1022.1 |
| 20260903073001 | 62 | 208 | 2.0 | 0.0 | 0.00 | 0.00 | 0.00 | 72 | 1022.1 |
| 20260903072502 | 62 | 203 | 3.0 | 0.0 | 0.00 | 0.00 | 0.00 | 74 | 1022.3 |
| 20260903072001 | 62 | 207 | 6.0 | 0.0 | 0.00 | 0.00 | 0.00 | 75 | 1022.1 |
| 20260903071502 | 62 | 186 | 4.0 | 0.0 | 0.00 | 0.00 | 0.00 | 76 | 1022.3 |
| 20260903071002 | 61 | 193 | 4.0 | 0.0 | 0.00 | 0.00 | 0.00 | 76 | 1022.4 |
| 20260903070501 | 61 | 196 | 3.0 | 0.0 | 0.00 | 0.00 | 0.00 | 77 | 1022.4 |
| 20260903070002 | 60 | 152 | 2.0 | 0.0 | 0.00 | 0.00 | 0.00 | 78 | 1022.5 |
| 20260903065501 | 61 | 187 | 3.0 | 0.0 | 0.00 | 0.00 | 0.00 | 78 | 1022.5 |
| 20260903065002 | 61 | 178 | 2.0 | 0.0 | 0.00 | 0.00 | 0.00 | 76 | 1022.7 |
| 20260903064501 | 62 | 200 | 1.0 | 0.0 | 0.00 | 0.00 | 0.00 | 74 | 1022.6 |
| 20260903064001 | 60 | 56 | 0.0 | 0.0 | 0.00 | 0.00 | 0.00 | 76 | 1022.7 |
| 20260903063501 | 59 | 0 | 0.0 | 0.0 | 0.00 | 0.00 | 0.00 | 76 | 1022.6 |
| 20260903063002 | 60 | 61 | 1.0 | 0.0 | 0.00 | 0.00 | 0.00 | 76 | 1022.5 |
| 20260903062502 | 59 | 0 | 0.0 | 0.0 | 0.00 | 0.00 | 0.00 | 78 | 1022.4 |
| 20260903062001 | 59 | 185 | 1.0 | 0.0 | 0.00 | 0.00 | 0.00 | 76 | 1022.2 |
| 20260903061502 | 58 | 62 | 0.0 | 0.0 | 0.00 | 0.00 | 0.00 | 78 | 1022.3 |
| 20260903061001 | 58 | 59 | 0.0 | 0.0 | 0.00 | 0.00 | 0.00 | 77 | 1022.2 |
| 20260903060502 | 59 | 329 | 1.0 | 0.0 | 0.00 | 0.00 | 0.00 | 76 | 1022.2 |
| 20260903060001 | 57 | 336 | 1.0 | 0.0 | 0.00 | 0.00 | 0.00 | 79 | 1022.1 |
| 20260903055502 | 56 | 341 | 1.0 | 0.0 | 0.00 | 0.00 | 0.00 | 82 | 1022.0 |
| 20260903055001 | 55 | 69 | 3.0 | 0.0 | 0.00 | 0.00 | 0.00 | 85 | 1021.9 |
| 20260903054501 | 54 | 318 | 1.0 | 0.0 | 0.00 | 0.00 | 0.00 | 85 | 1021.9 |
| 20260903054002 | 54 | 314 | 3.0 | 0.0 | 0.00 | 0.00 | 0.00 | 86 | 1022.0 |
| 20260903053501 | 54 | 334 | 3.0 | 0.0 | 0.00 | 0.00 | 0.00 | 86 | 1022.0 |
| 20260903053002 | 54 | 334 | 1.0 | 0.0 | 0.00 | 0.00 | 0.00 | 86 | 1021.8 |
| 20260903052501 | 53 | 0 | 0.0 | 0.0 | 0.00 | 0.00 | 0.00 | 87 | 1021.6 |
| 20260903052002 | 54 | 106 | 1.0 | 0.0 | 0.00 | 0.00 | 0.00 | 85 | 1021.8 |
| 20260903051501 | 55 | 115 | 2.0 | 0.0 | 0.00 | 0.00 | 0.00 | 83 | 1021.9 |
| 20260903051001 | 55 | 128 | 2.0 | 0.0 | 0.00 | 0.00 | 0.00 | 83 | 1021.9 |
| 20260903050501 | 55 | 0 | 0.0 | 0.0 | 0.00 | 0.00 | 0.00 | 86 | 1022.0 |
| 20260903050001 | 53 | 7 | 1.0 | 0.0 | 0.00 | 0.00 | 0.00 | 87 | 1021.9 |
| 20260903045502 | 54 | 333 | 2.0 | 0.0 | 0.00 | 0.00 | 0.00 | 87 | 1021.8 |
| 20260903045001 | 54 | 344 | 3.0 | 0.0 | 0.00 | 0.00 | 0.00 | 85 | 1021.6 |
| 20260903044502 | 54 | 27 | 2.0 | 0.0 | 0.00 | 0.00 | 0.00 | 83 | 1021.6 |
| 20260903044001 | 56 | 7 | 3.0 | 0.0 | 0.00 | 0.00 | 0.00 | 81 | 1021.7 |
| 20260903043502 | 55 | 24 | 2.0 | 0.0 | 0.00 | 0.00 | 0.00 | 82 | 1021.5 |
| 20260903043001 | 55 | 33 | 0.0 | 0.0 | 0.00 | 0.00 | 0.00 | 82 | 1021.5 |
| 20260903042501 | 55 | 323 | 0.0 | 0.0 | 0.00 | 0.00 | 0.00 | 83 | 1021.4 |
| 20260903042001 | 55 | 345 | 1.0 | 0.0 | 0.00 | 0.00 | 0.00 | 84 | 1021.4 |
| 20260903041501 | 55 | 317 | 1.0 | 0.0 | 0.00 | 0.00 | 0.00 | 84 | 1021.3 |
| 20260903041002 | 55 | 315 | 1.0 | 0.0 | 0.00 | 0.00 | 0.00 | 84 | 1021.4 |
| 20260903040501 | 55 | 344 | 0.0 | 0.0 | 0.00 | 0.00 | 0.00 | 84 | 1021.5 |
| 20260903040002 | 55 | 328 | 2.0 | 0.0 | 0.00 | 0.00 | 0.00 | 82 | 1021.4 |
| 20260903035503 | 56 | 31 | 2.0 | 0.0 | 0.00 | 0.00 | 0.00 | 83 | 1021.4 |
| 20260903035001 | 56 | 35 | 1.0 | 0.0 | 0.00 | 0.00 | 0.00 | 82 | 1021.4 |
| 20260903034502 | 56 | 70 | 1.0 | 0.0 | 0.00 | 0.00 | 0.00 | 81 | 1021.4 |
| 20260903034002 | 56 | 42 | 2.0 | 0.0 | 0.00 | 0.00 | 0.00 | 82 | 1021.4 |
| 20260903033501 | 56 | 5 | 2.0 | 0.0 | 0.00 | 0.00 | 0.00 | 82 | 1021.4 |
| 20260903033001 | 56 | 30 | 1.0 | 0.0 | 0.00 | 0.00 | 0.00 | 82 | 1021.4 |
| 20260903032502 | 55 | 33 | 1.0 | 0.0 | 0.00 | 0.00 | 0.00 | 84 | 1021.4 |
| 20260903032001 | 55 | 31 | 1.0 | 0.0 | 0.00 | 0.00 | 0.00 | 83 | 1021.5 |
| 20260903031501 | 56 | 14 | 1.0 | 0.0 | 0.00 | 0.00 | 0.00 | 82 | 1021.4 |
| 20260903031002 | 56 | 12 | 2.0 | 0.0 | 0.00 | 0.00 | 0.00 | 82 | 1021.5 |
| 20260903030501 | 56 | 334 | 3.0 | 0.0 | 0.00 | 0.00 | 0.00 | 82 | 1021.4 |
| 20260903030002 | 56 | 354 | 2.0 | 0.0 | 0.00 | 0.00 | 0.00 | 82 | 1021.5 |
| 20260903025502 | 57 | 0 | 0.0 | 0.0 | 0.00 | 0.00 | 0.00 | 80 | 1021.4 |
| 20260903025002 | 57 | 20 | 0.0 | 0.0 | 0.00 | 0.00 | 0.00 | 80 | 1021.4 |
| 20260903024501 | 57 | 0 | 0.0 | 0.0 | 0.00 | 0.00 | 0.00 | 80 | 1021.3 |
| 20260903024002 | 57 | 32 | 2.0 | 0.0 | 0.00 | 0.00 | 0.00 | 81 | 1021.4 |
| 20260903023501 | 57 | 50 | 1.0 | 0.0 | 0.00 | 0.00 | 0.00 | 80 | 1021.3 |
| 20260903023001 | 57 | 45 | 1.0 | 0.0 | 0.00 | 0.00 | 0.00 | 81 | 1021.3 |
| 20260903022502 | 56 | 57 | 1.0 | 0.0 | 0.00 | 0.00 | 0.00 | 82 | 1021.4 |
| 20260903022001 | 57 | 91 | 2.0 | 0.0 | 0.00 | 0.00 | 0.00 | 81 | 1021.4 |
| 20260903021501 | 57 | 0 | 0.0 | 0.0 | 0.00 | 0.00 | 0.00 | 81 | 1021.4 |
| 20260903021002 | 57 | 86 | 0.0 | 0.0 | 0.00 | 0.00 | 0.00 | 81 | 1021.4 |
| 20260903020501 | 57 | 9 | 0.0 | 0.0 | 0.00 | 0.00 | 0.00 | 80 | 1021.6 |
| 20260903020001 | 57 | 12 | 1.0 | 0.0 | 0.00 | 0.00 | 0.00 | 81 | 1021.5 |
| 20260903015502 | 57 | 357 | 0.0 | 0.0 | 0.00 | 0.00 | 0.00 | 81 | 1021.5 |
| 20260903015001 | 58 | 67 | 1.0 | 0.0 | 0.00 | 0.00 | 0.00 | 78 | 1021.5 |
| 20260903014501 | 58 | 46 | 1.0 | 0.0 | 0.00 | 0.00 | 0.00 | 80 | 1021.5 |
| 20260903014002 | 58 | 299 | 0.0 | 0.0 | 0.00 | 0.00 | 0.00 | 80 | 1021.5 |
| 20260903013501 | 58 | 39 | 1.0 | 0.0 | 0.00 | 0.00 | 0.00 | 81 | 1021.4 |
| 20260903013001 | 58 | 31 | 1.0 | 0.0 | 0.00 | 0.00 | 0.00 | 80 | 1021.3 |
| 20260903012502 | 58 | 0 | 2.0 | 0.0 | 0.00 | 0.00 | 0.00 | 80 | 1021.4 |
| 20260903012001 | 58 | 26 | 2.0 | 0.0 | 0.00 | 0.00 | 0.00 | 80 | 1021.4 |
| 20260903011501 | 58 | 51 | 2.0 | 0.0 | 0.00 | 0.00 | 0.00 | 80 | 1021.4 |
| 20260903011002 | 58 | 359 | 2.0 | 0.0 | 0.00 | 0.00 | 0.00 | 80 | 1021.4 |
| 20260903010501 | 58 | 332 | 2.0 | 0.0 | 0.00 | 0.00 | 0.00 | 80 | 1021.3 |
| 20260903010001 | 58 | 333 | 2.0 | 0.0 | 0.00 | 0.00 | 0.00 | 79 | 1021.2 |
| 20260903005502 | 58 | 334 | 2.0 | 0.0 | 0.00 | 0.00 | 0.00 | 78 | 1021.3 |
| 20260903005001 | 59 | 338 | 1.0 | 0.0 | 0.00 | 0.00 | 0.00 | 77 | 1021.2 |
| 20260903004501 | 59 | 0 | 0.0 | 0.0 | 0.00 | 0.00 | 0.00 | 77 | 1021.2 |
| 20260903004002 | 59 | 2 | 2.0 | 0.0 | 0.00 | 0.00 | 0.00 | 76 | 1021.2 |
| 20260903003501 | 59 | 87 | 2.0 | 0.0 | 0.00 | 0.00 | 0.00 | 75 | 1021.2 |
| 20260903003002 | 60 | 22 | 1.0 | 0.0 | 0.00 | 0.00 | 0.00 | 74 | 1021.2 |
| 20260903002502 | 60 | 61 | 1.0 | 0.0 | 0.00 | 0.00 | 0.00 | 73 | 1021.2 |
| 20260903002001 | 60 | 19 | 1.0 | 0.0 | 0.00 | 0.00 | 0.00 | 73 | 1021.3 |
| 20260903001501 | 60 | 64 | 1.0 | 0.0 | 0.00 | 0.00 | 0.00 | 74 | 1021.3 |
| 20260903001002 | 59 | 92 | 1.0 | 0.0 | 0.00 | 0.00 | 0.00 | 77 | 1021.3 |
| 20260903000501 | 59 | 56 | 1.0 | 0.0 | 0.00 | 0.00 | 0.00 | 76 | 1021.3 |
| 20260903000001 | 60 | 106 | 2.0 | 0.0 | 0.00 | 0.00 | 0.00 | 72 | 1021.3 |
| 20260902235502 | 62 | 96 | 2.0 | 0.0 | 0.00 | 0.00 | 0.00 | 68 | 1021.3 |
| 20260902235001 | 61 | 0 | 0.0 | 0.0 | 0.00 | 0.00 | 0.00 | 69 | 1021.2 |
| 20260902234501 | 59 | 0 | 0.0 | 0.0 | 0.00 | 0.00 | 0.00 | 75 | 1021.3 |
| 20260902234002 | 61 | 313 | 4.0 | 0.0 | 0.00 | 0.00 | 0.00 | 70 | 1021.3 |
| 20260902233501 | 62 | 0 | 0.0 | 0.0 | 0.00 | 0.00 | 0.00 | 68 | 1021.3 |
| 20260902233001 | 61 | 328 | 0.0 | 0.0 | 0.00 | 0.00 | 0.00 | 69 | 1021.2 |
| 20260902232502 | 60 | 272 | 1.0 | 0.0 | 0.00 | 0.00 | 0.00 | 73 | 1021.3 |
| 20260902232001 | 61 | 297 | 2.0 | 0.0 | 0.00 | 0.00 | 0.00 | 72 | 1021.2 |
| 20260902231501 | 60 | 0 | 0.0 | 0.0 | 0.00 | 0.00 | 0.00 | 74 | 1021.2 |
| 20260902231002 | 60 | 0 | 0.0 | 0.0 | 0.00 | 0.00 | 0.00 | 74 | 1021.2 |
| 20260902230501 | 60 | 312 | 1.0 | 0.0 | 0.00 | 0.00 | 0.00 | 75 | 1021.2 |
| 20260902230002 | 62 | 317 | 2.0 | 0.0 | 0.00 | 0.00 | 0.00 | 70 | 1021.2 |
| 20260902225502 | 62 | 10 | 1.0 | 0.0 | 0.00 | 0.00 | 0.00 | 70 | 1021.2 |
| 20260902225001 | 62 | 49 | 0.0 | 0.0 | 0.00 | 0.00 | 0.00 | 70 | 1021.2 |
| 20260902224501 | 62 | 46 | 1.0 | 0.0 | 0.00 | 0.00 | 0.00 | 71 | 1021.2 |
| 20260902224002 | 62 | 81 | 1.0 | 0.0 | 0.00 | 0.00 | 0.00 | 71 | 1021.3 |
| 20260902223501 | 62 | 62 | 2.0 | 0.0 | 0.00 | 0.00 | 0.00 | 70 | 1021.3 |
| 20260902223001 | 62 | 47 | 2.0 | 0.0 | 0.00 | 0.00 | 0.00 | 69 | 1021.4 |
| 20260902222502 | 63 | 44 | 2.0 | 0.0 | 0.00 | 0.00 | 0.00 | 68 | 1021.3 |
| 20260902222001 | 63 | 70 | 1.0 | 0.0 | 0.00 | 0.00 | 0.00 | 68 | 1021.3 |
| 20260902221501 | 63 | 27 | 2.0 | 0.0 | 0.00 | 0.00 | 0.00 | 68 | 1021.1 |
| 20260902221002 | 63 | 43 | 2.0 | 0.0 | 0.00 | 0.00 | 0.00 | 68 | 1021.2 |
| 20260902220501 | 64 | 27 | 3.0 | 0.0 | 0.00 | 0.00 | 0.00 | 66 | 1021.2 |
| 20260902220001 | 64 | 43 | 2.0 | 0.0 | 0.00 | 0.00 | 0.00 | 63 | 1021.2 |
| 20260902215502 | 64 | 43 | 2.0 | 0.0 | 0.00 | 0.00 | 0.00 | 63 | 1021.1 |
| 20260902215001 | 64 | 21 | 1.0 | 0.0 | 0.00 | 0.00 | 0.00 | 62 | 1021.0 |
| 20260902214501 | 64 | 0 | 0.0 | 0.0 | 0.00 | 0.00 | 0.00 | 63 | 1021.2 |
| 20260902214002 | 63 | 329 | 1.0 | 0.0 | 0.00 | 0.00 | 0.00 | 64 | 1021.1 |
| 20260902213501 | 65 | 326 | 2.0 | 0.0 | 0.00 | 0.00 | 0.00 | 60 | 1021.0 |
| 20260902213001 | 66 | 346 | 1.0 | 0.0 | 0.00 | 0.00 | 0.00 | 56 | 1021.0 |
| 20260902212502 | 66 | 340 | 2.0 | 0.0 | 0.00 | 0.00 | 0.00 | 56 | 1020.8 |
| 20260902212001 | 65 | 325 | 3.0 | 0.0 | 0.00 | 0.00 | 0.00 | 56 | 1020.9 |
| 20260902211501 | 66 | 308 | 4.0 | 0.0 | 0.00 | 0.00 | 0.00 | 53 | 1020.9 |
| 20260902211002 | 68 | 336 | 3.0 | 0.0 | 0.00 | 0.00 | 0.00 | 50 | 1020.8 |
| 20260902210501 | 67 | 312 | 3.0 | 0.0 | 0.00 | 0.00 | 0.00 | 53 | 1020.8 |
| 20260902210002 | 66 | 305 | 3.0 | 0.0 | 0.00 | 0.00 | 0.00 | 56 | 1020.8 |
| 20260902205502 | 67 | 299 | 3.0 | 0.0 | 0.00 | 0.00 | 0.00 | 54 | 1020.7 |
| 20260902205001 | 65 | 307 | 3.0 | 0.0 | 0.00 | 0.00 | 0.00 | 61 | 1020.8 |
| 20260902204501 | 65 | 319 | 5.0 | 0.0 | 0.00 | 0.00 | 0.00 | 68 | 1020.8 |
| 20260902204002 | 65 | 315 | 4.0 | 0.0 | 0.00 | 0.00 | 0.00 | 66 | 1020.7 |
| 20260902203501 | 66 | 327 | 2.0 | 0.0 | 0.00 | 0.00 | 0.00 | 66 | 1020.7 |
| 20260902203001 | 66 | 189 | 1.0 | 0.0 | 0.00 | 0.00 | 0.00 | 59 | 1020.6 |
| 20260902202502 | 66 | 253 | 0.0 | 0.0 | 0.00 | 0.00 | 0.00 | 65 | 1020.6 |
| 20260902202001 | 68 | 314 | 2.0 | 0.0 | 0.00 | 0.00 | 0.00 | 60 | 1020.6 |
| 20260902201502 | 68 | 281 | 3.0 | 0.0 | 0.00 | 0.00 | 0.00 | 56 | 1020.6 |
| 20260902201002 | 68 | 318 | 2.0 | 0.0 | 0.00 | 0.00 | 0.00 | 58 | 1020.6 |
| 20260902200501 | 68 | 283 | 3.0 | 0.0 | 0.00 | 0.00 | 0.00 | 57 | 1020.6 |
| 20260902200001 | 67 | 271 | 2.0 | 0.0 | 0.00 | 0.00 | 0.00 | 62 | 1020.5 |
| 20260902195502 | 67 | 255 | 2.0 | 0.0 | 0.00 | 0.00 | 0.00 | 63 | 1020.6 |
| 20260902195001 | 66 | 224 | 1.0 | 0.0 | 0.00 | 0.00 | 0.00 | 66 | 1020.6 |
| 20260902194502 | 66 | 216 | 3.0 | 0.0 | 0.00 | 0.00 | 0.00 | 66 | 1020.6 |
| 20260902194002 | 69 | 206 | 0.0 | 0.0 | 0.00 | 0.00 | 0.00 | 59 | 1020.6 |
| 20260902193501 | 68 | 302 | 2.0 | 0.0 | 0.00 | 0.00 | 0.00 | 60 | 1020.6 |
| 20260902193001 | 69 | 295 | 3.0 | 0.0 | 0.00 | 0.00 | 0.00 | 59 | 1020.4 |
| 20260902192502 | 70 | 282 | 4.0 | 0.0 | 0.00 | 0.00 | 0.00 | 55 | 1020.3 |
| 20260902192002 | 70 | 280 | 4.0 | 0.0 | 0.00 | 0.00 | 0.00 | 53 | 1020.3 |
| 20260902191501 | 70 | 273 | 3.0 | 0.0 | 0.00 | 0.00 | 0.00 | 56 | 1020.4 |
| 20260902191002 | 69 | 270 | 5.0 | 0.0 | 0.00 | 0.00 | 0.00 | 57 | 1020.3 |
| 20260902190501 | 69 | 278 | 3.0 | 0.0 | 0.00 | 0.00 | 0.00 | 57 | 1020.3 |
| 20260902190001 | 70 | 254 | 3.0 | 0.0 | 0.00 | 0.00 | 0.00 | 57 | 1020.3 |
| 20260902185502 | 70 | 249 | 5.0 | 0.0 | 0.00 | 0.00 | 0.00 | 58 | 1020.1 |
| 20260902185001 | 69 | 243 | 1.0 | 0.0 | 0.00 | 0.00 | 0.00 | 60 | 1020.1 |
| 20260902184501 | 69 | 300 | 3.0 | 0.0 | 0.00 | 0.00 | 0.00 | 60 | 1020.0 |
| 20260902184002 | 69 | 249 | 1.0 | 0.0 | 0.00 | 0.00 | 0.00 | 60 | 1020.0 |
| 20260902183501 | 69 | 313 | 5.0 | 0.0 | 0.00 | 0.00 | 0.00 | 60 | 1019.9 |
| 20260902183002 | 69 | 244 | 2.0 | 0.0 | 0.00 | 0.00 | 0.00 | 60 | 1019.9 |
| 20260902182502 | 69 | 251 | 3.0 | 0.0 | 0.00 | 0.00 | 0.00 | 60 | 1019.8 |
| 20260902182002 | 69 | 262 | 3.0 | 0.0 | 0.00 | 0.00 | 0.00 | 60 | 1019.7 |
| 20260902181502 | 69 | 242 | 3.0 | 0.0 | 0.00 | 0.00 | 0.00 | 59 | 1019.7 |
| 20260902181001 | 69 | 250 | 2.0 | 0.0 | 0.00 | 0.00 | 0.00 | 60 | 1019.8 |
| 20260902180502 | 69 | 238 | 4.0 | 0.0 | 0.00 | 0.00 | 0.00 | 59 | 1019.7 |
| 20260902180002 | 69 | 240 | 3.0 | 0.0 | 0.00 | 0.00 | 0.00 | 57 | 1019.6 |
| 20260902175501 | 69 | 241 | 3.0 | 0.0 | 0.00 | 0.00 | 0.00 | 55 | 1019.6 |
| 20260902175001 | 70 | 241 | 4.0 | 0.0 | 0.00 | 0.00 | 0.00 | 53 | 1019.6 |
| 20260902174502 | 71 | 242 | 4.0 | 0.0 | 0.00 | 0.00 | 0.00 | 50 | 1019.6 |
| 20260902174002 | 71 | 232 | 2.0 | 0.0 | 0.00 | 0.00 | 0.00 | 47 | 1019.5 |
| 20260902173502 | 71 | 242 | 2.0 | 0.0 | 0.00 | 0.00 | 0.00 | 45 | 1019.4 |
| 20260902173002 | 71 | 242 | 2.0 | 0.0 | 0.00 | 0.00 | 0.00 | 48 | 1019.5 |
| 20260902172501 | 72 | 255 | 2.0 | 0.0 | 0.00 | 0.00 | 0.00 | 47 | 1019.4 |
| 20260902172002 | 72 | 238 | 2.0 | 0.0 | 0.00 | 0.00 | 0.00 | 47 | 1019.4 |
| 20260902171501 | 72 | 246 | 2.0 | 0.0 | 0.00 | 0.00 | 0.00 | 45 | 1019.4 |
| 20260902171002 | 72 | 250 | 1.0 | 0.0 | 0.00 | 0.00 | 0.00 | 46 | 1019.4 |
| 20260902170501 | 73 | 241 | 2.0 | 0.0 | 0.00 | 0.00 | 0.00 | 46 | 1019.4 |
| 20260902170002 | 73 | 252 | 2.0 | 0.0 | 0.00 | 0.00 | 0.00 | 48 | 1019.3 |
| 20260902165501 | 73 | 238 | 2.0 | 0.0 | 0.00 | 0.00 | 0.00 | 46 | 1019.3 |
| 20260902165002 | 74 | 249 | 2.0 | 0.0 | 0.00 | 0.00 | 0.00 | 42 | 1019.3 |
| 20260902164502 | 74 | 251 | 3.0 | 0.0 | 0.00 | 0.00 | 0.00 | 40 | 1019.4 |
| 20260902164001 | 74 | 269 | 2.0 | 0.0 | 0.00 | 0.00 | 0.00 | 39 | 1019.5 |
| 20260902163502 | 73 | 274 | 4.0 | 0.0 | 0.00 | 0.00 | 0.00 | 39 | 1019.4 |
| 20260902163001 | 73 | 260 | 4.0 | 0.0 | 0.00 | 0.00 | 0.00 | 40 | 1019.3 |
| 20260902162502 | 73 | 267 | 4.0 | 0.0 | 0.00 | 0.00 | 0.00 | 39 | 1019.3 |
| 20260902162001 | 73 | 249 | 2.0 | 0.0 | 0.00 | 0.00 | 0.00 | 38 | 1019.4 |
| 20260902161502 | 74 | 267 | 6.0 | 0.0 | 0.00 | 0.00 | 0.00 | 37 | 1019.3 |
| 20260902161001 | 74 | 267 | 3.0 | 0.0 | 0.00 | 0.00 | 0.00 | 37 | 1019.3 |
| 20260902160502 | 74 | 268 | 7.0 | 0.0 | 0.00 | 0.00 | 0.00 | 36 | 1019.3 |
| 20260902160002 | 74 | 260 | 7.0 | 0.0 | 0.00 | 0.00 | 0.00 | 36 | 1019.3 |
| 20260902155501 | 75 | 261 | 5.0 | 0.0 | 0.00 | 0.00 | 0.00 | 36 | 1019.1 |
| 20260902155002 | 76 | 271 | 4.0 | 0.0 | 0.00 | 0.00 | 0.00 | 38 | 1019.2 |
| 20260902154501 | 76 | 268 | 4.0 | 0.0 | 0.00 | 0.00 | 0.00 | 38 | 1019.1 |
| 20260902153502 | 75 | 241 | 8.0 | 0.0 | 0.00 | 0.00 | 0.00 | 39 | 1019.2 |
| 20260902153002 | 75 | 261 | 6.0 | 0.0 | 0.00 | 0.00 | 0.00 | 41 | 1019.2 |
| 20260902152501 | 75 | 266 | 8.0 | 0.0 | 0.00 | 0.00 | 0.00 | 41 | 1019.3 |
| 20260902152019 | 74 | 286 | 5.0 | 0.0 | 0.00 | 0.00 | 0.00 | 41 | 1019.4 |
| 20260902150501 | 75 | 302 | 6.0 | 0.0 | 0.00 | 0.00 | 0.00 | 42 | 1019.5 |
| 20260902145501 | 74 | 274 | 6.0 | 0.0 | 0.00 | 0.00 | 0.00 | 42 | 1019.5 |
| 20260902145004 | 74 | 250 | 6.0 | 0.0 | 0.00 | 0.00 | 0.00 | 42 | 1019.5 |
| 20260902144502 | 74 | 253 | 5.0 | 0.0 | 0.00 | 0.00 | 0.00 | 41 | 1019.5 |
| 20260902144001 | 75 | 301 | 8.0 | 0.0 | 0.00 | 0.00 | 0.00 | 42 | 1019.6 |
| 20260902143502 | 74 | 276 | 2.0 | 0.0 | 0.00 | 0.00 | 0.00 | 41 | 1019.5 |
| 20260902143006 | 74 | 289 | 10.0 | 0.0 | 0.00 | 0.00 | 0.00 | 41 | 1019.5 |
| 20260902142501 | 73 | 285 | 8.0 | 0.0 | 0.00 | 0.00 | 0.00 | 46 | 1019.6 |
| 20260902142001 | 73 | 266 | 3.0 | 0.0 | 0.00 | 0.00 | 0.00 | 46 | 1019.5 |
| 20260902141503 | 73 | 249 | 5.0 | 0.0 | 0.00 | 0.00 | 0.00 | 46 | 1019.5 |
| 20260902141002 | 73 | 255 | 4.0 | 0.0 | 0.00 | 0.00 | 0.00 | 47 | 1019.5 |
| 20260902140506 | 73 | 247 | 4.0 | 0.0 | 0.00 | 0.00 | 0.00 | 46 | 1019.5 |
| 20260902140001 | 73 | 251 | 4.0 | 0.0 | 0.00 | 0.00 | 0.00 | 46 | 1019.4 |
| 20260902135502 | 73 | 266 | 10.0 | 0.0 | 0.00 | 0.00 | 0.00 | 44 | 1019.5 |
| 20260902131506 | 74 | 283 | 10.0 | 0.0 | 0.00 | 0.00 | 0.00 | 46 | 1019.8 |
| 20260902131004 | 73 | 319 | 12.0 | 0.0 | 0.00 | 0.00 | 0.00 | 50 | 1019.7 |
| 20260902130504 | 73 | 281 | 8.0 | 0.0 | 0.00 | 0.00 | 0.00 | 48 | 1019.8 |
| 20260902130001 | 74 | 266 | 9.0 | 0.0 | 0.00 | 0.00 | 0.00 | 49 | 1019.7 |
| 20260902125501 | 74 | 240 | 2.0 | 0.0 | 0.00 | 0.00 | 0.00 | 51 | 1019.8 |
| 20260902125007 | 74 | 191 | 5.0 | 0.0 | 0.00 | 0.00 | 0.00 | 49 | 1019.8 |
| 20260902124502 | 73 | 261 | 4.0 | 0.0 | 0.00 | 0.00 | 0.00 | 53 | 1019.9 |
| 20260902124001 | 74 | 252 | 5.0 | 0.0 | 0.00 | 0.00 | 0.00 | 52 | 1019.8 |
| 20260902123502 | 73 | 276 | 2.0 | 0.0 | 0.00 | 0.00 | 0.00 | 54 | 1020.0 |
| 20260902123001 | 73 | 249 | 6.0 | 0.0 | 0.00 | 0.00 | 0.00 | 55 | 1020.0 |
| 20260902122502 | 73 | 213 | 6.0 | 0.0 | 0.00 | 0.00 | 0.00 | 52 | 1020.1 |
| 20260902122001 | 74 | 0 | 0.0 | 0.0 | 0.00 | 0.00 | 0.00 | 53 | 1020.0 |
| 20260902121502 | 73 | 243 | 1.0 | 0.0 | 0.00 | 0.00 | 0.00 | 54 | 1020.1 |
| 20260902121002 | 73 | 207 | 8.0 | 0.0 | 0.00 | 0.00 | 0.00 | 56 | 1020.0 |
| 20260902120501 | 72 | 198 | 5.0 | 0.0 | 0.00 | 0.00 | 0.00 | 55 | 1020.0 |
| 20260902120002 | 72 | 262 | 6.0 | 0.0 | 0.00 | 0.00 | 0.00 | 54 | 1020.0 |
| 20260902115501 | 73 | 239 | 5.0 | 0.0 | 0.00 | 0.00 | 0.00 | 54 | 1020.2 |
| 20260902115002 | 72 | 198 | 2.0 | 0.0 | 0.00 | 0.00 | 0.00 | 54 | 1020.2 |
| 20260902114501 | 74 | 255 | 5.0 | 0.0 | 0.00 | 0.00 | 0.00 | 51 | 1020.3 |
| 20260902114005 | 73 | 242 | 3.0 | 0.0 | 0.00 | 0.00 | 0.00 | 55 | 1020.4 |
| 20260902113501 | 72 | 195 | 4.0 | 0.0 | 0.00 | 0.00 | 0.00 | 56 | 1020.4 |
| 20260902113002 | 72 | 254 | 2.0 | 0.0 | 0.00 | 0.00 | 0.00 | 56 | 1020.4 |
| 20260902112501 | 71 | 278 | 2.0 | 0.0 | 0.00 | 0.00 | 0.00 | 56 | 1020.4 |
| 20260902112002 | 71 | 248 | 4.0 | 0.0 | 0.00 | 0.00 | 0.00 | 58 | 1020.4 |
| 20260902111501 | 71 | 238 | 6.0 | 0.0 | 0.00 | 0.00 | 0.00 | 59 | 1020.5 |
| 20260902111002 | 71 | 240 | 2.0 | 0.0 | 0.00 | 0.00 | 0.00 | 58 | 1020.5 |
| 20260902110501 | 72 | 200 | 7.0 | 0.0 | 0.00 | 0.00 | 0.00 | 58 | 1020.5 |
| 20260902105501 | 71 | 245 | 3.0 | 0.0 | 0.00 | 0.00 | 0.00 | 58 | 1020.6 |
| 20260902105002 | 71 | 199 | 5.0 | 0.0 | 0.00 | 0.00 | 0.00 | 59 | 1020.6 |
| 20260902104501 | 70 | 275 | 4.0 | 0.0 | 0.00 | 0.00 | 0.00 | 60 | 1020.7 |
| 20260902104002 | 71 | 192 | 4.0 | 0.0 | 0.00 | 0.00 | 0.00 | 59 | 1020.7 |
| 20260902103501 | 70 | 196 | 1.0 | 0.0 | 0.00 | 0.00 | 0.00 | 63 | 1020.7 |
| 20260902103002 | 69 | 238 | 2.0 | 0.0 | 0.00 | 0.00 | 0.00 | 61 | 1020.7 |
| 20260902102502 | 69 | 213 | 6.0 | 0.0 | 0.00 | 0.00 | 0.00 | 62 | 1020.9 |
| 20260902102002 | 69 | 221 | 3.0 | 0.0 | 0.00 | 0.00 | 0.00 | 62 | 1020.9 |
| 20260902101502 | 69 | 211 | 6.0 | 0.0 | 0.00 | 0.00 | 0.00 | 64 | 1021.0 |
| 20260902101001 | 69 | 200 | 5.0 | 0.0 | 0.00 | 0.00 | 0.00 | 65 | 1021.1 |
| 20260902100508 | 69 | 209 | 3.0 | 0.0 | 0.00 | 0.00 | 0.00 | 64 | 1021.0 |
| 20260902100002 | 68 | 241 | 4.0 | 0.0 | 0.00 | 0.00 | 0.00 | 64 | 1021.0 |
| 20260902095502 | 68 | 239 | 3.0 | 0.0 | 0.00 | 0.00 | 0.00 | 67 | 1021.0 |
| 20260902095001 | 68 | 242 | 2.0 | 0.0 | 0.00 | 0.00 | 0.00 | 66 | 1021.0 |
| 20260902094502 | 68 | 224 | 1.0 | 0.0 | 0.00 | 0.00 | 0.00 | 65 | 1020.9 |
| 20260902094002 | 68 | 151 | 2.0 | 0.0 | 0.00 | 0.00 | 0.00 | 67 | 1020.9 |